Time,TemperatureF,DewpointF,PressureIn,WindDirection,WindDirectionDegrees,WindSpeedMPH,WindSpeedGustMPH,Humidity,HourlyPrecipIn,Conditions,Clouds,dailyrainin,SoftwareType,DateUTC
2013-05-08 00:01:00,52.9,50.9,29.96,NNE,32,2.0,3.0,93,0.07,,---,0.00,VWS V14.01,2013-05-08 04:01:00,
2013-05-08 00:06:00,52.9,51.2,29.96,NNE,32,0.0,5.0,94,0.08,,---,0.01,VWS V14.01,2013-05-08 04:06:00,
2013-05-08 00:11:00,52.9,50.9,29.96,NNE,32,1.0,5.0,93,0.08,,---,0.01,VWS V14.01,2013-05-08 04:11:00,
2013-05-08 00:16:00,52.9,51.2,29.96,NE,38,0.0,5.0,94,0.09,,---,0.02,VWS V14.01,2013-05-08 04:16:00,
2013-05-08 00:21:00,52.9,51.2,29.96,NE,38,2.0,5.0,94,0.10,,---,0.03,VWS V14.01,2013-05-08 04:21:00,
2013-05-08 00:26:00,53.0,51.0,29.96,NE,38,0.0,5.0,93,0.11,,---,0.04,VWS V14.01,2013-05-08 04:26:00,
2013-05-08 00:31:00,53.0,51.0,29.96,NE,38,0.0,0.0,93,0.04,,---,0.04,VWS V14.01,2013-05-08 04:31:00,
2013-05-08 00:36:00,53.0,51.0,29.96,NE,38,0.0,0.0,93,0.05,,---,0.05,VWS V14.01,2013-05-08 04:36:00,
2013-05-08 00:41:00,53.0,51.3,29.96,NE,38,0.0,1.0,94,0.05,,---,0.05,VWS V14.01,2013-05-08 04:41:00,
2013-05-08 00:46:00,52.9,51.2,29.95,NE,38,1.0,2.0,94,0.06,,---,0.06,VWS V14.01,2013-05-08 04:46:00,
2013-05-08 00:51:00,52.9,51.2,29.95,NE,38,1.0,3.0,94,0.06,,---,0.06,VWS V14.01,2013-05-08 04:51:00,
2013-05-08 00:56:00,52.9,51.2,29.95,NE,38,0.0,3.0,94,0.07,,---,0.07,VWS V14.01,2013-05-08 04:56:00,
2013-05-08 01:01:00,52.8,51.1,29.95,NE,38,0.0,0.0,94,0.07,,---,0.07,VWS V14.01,2013-05-08 05:01:00,
2013-05-08 01:06:00,52.9,51.2,29.95,NE,38,0.0,0.0,94,0.07,,---,0.07,VWS V14.01,2013-05-08 05:06:00,
2013-05-08 01:11:00,52.9,51.2,29.95,NE,38,0.0,1.0,94,0.07,,---,0.07,VWS V14.01,2013-05-08 05:11:00,
2013-05-08 01:16:00,52.9,51.2,29.95,NE,38,0.0,1.0,94,0.07,,---,0.07,VWS V14.01,2013-05-08 05:16:00,
2013-05-08 01:21:00,52.8,51.1,29.95,NE,38,0.0,1.0,94,0.07,,---,0.07,VWS V14.01,2013-05-08 05:21:00,
2013-05-08 01:26:00,52.8,51.1,29.95,NE,38,0.0,1.0,94,0.07,,---,0.07,VWS V14.01,2013-05-08 05:26:00,
2013-05-08 01:31:00,52.8,51.1,29.95,NE,38,0.0,0.0,94,0.03,,---,0.07,VWS V14.01,2013-05-08 05:31:00,
2013-05-08 01:36:00,52.7,51.0,29.95,NE,38,0.0,0.0,94,0.03,,---,0.07,VWS V14.01,2013-05-08 05:36:00,
2013-05-08 01:41:00,52.6,50.6,29.95,NE,38,0.0,0.0,93,0.03,,---,0.07,VWS V14.01,2013-05-08 05:41:00,
2013-05-08 01:46:00,52.5,50.5,29.95,NE,38,0.0,0.0,93,0.03,,---,0.07,VWS V14.01,2013-05-08 05:46:00,
2013-05-08 01:51:00,52.4,50.4,29.95,NE,38,0.0,0.0,93,0.03,,---,0.07,VWS V14.01,2013-05-08 05:51:00,
2013-05-08 01:56:00,52.3,50.3,29.96,NE,38,0.0,0.0,93,0.03,,---,0.07,VWS V14.01,2013-05-08 05:56:00,
2013-05-08 02:00:00,52.3,50.6,29.95,NE,38,0.0,0.0,94,0.00,,---,0.07,VWS V14.01,2013-05-08 06:00:00,
2013-05-08 02:05:00,52.2,50.5,29.95,NE,38,0.0,0.0,94,0.00,,---,0.07,VWS V14.01,2013-05-08 06:05:00,
2013-05-08 02:10:00,52.1,50.4,29.95,NE,38,0.0,0.0,94,0.00,,---,0.07,VWS V14.01,2013-05-08 06:10:00,
2013-05-08 02:15:00,52.2,50.5,29.95,NE,38,0.0,1.0,94,0.00,,---,0.07,VWS V14.01,2013-05-08 06:15:00,
2013-05-08 02:20:00,52.3,50.3,29.95,NE,38,0.0,1.0,93,0.00,,---,0.07,VWS V14.01,2013-05-08 06:20:00,
2013-05-08 02:25:00,52.4,50.4,29.95,NE,38,0.0,1.0,93,0.00,,---,0.07,VWS V14.01,2013-05-08 06:25:00,
2013-05-08 02:30:00,52.5,50.5,29.95,NE,38,0.0,0.0,93,0.00,,---,0.07,VWS V14.01,2013-05-08 06:30:00,
2013-05-08 02:35:00,52.5,50.5,29.95,NE,38,0.0,0.0,93,0.00,,---,0.07,VWS V14.01,2013-05-08 06:35:00,
2013-05-08 02:40:00,52.6,50.6,29.95,NE,38,0.0,0.0,93,0.00,,---,0.07,VWS V14.01,2013-05-08 06:40:00,
2013-05-08 02:45:00,52.5,50.5,29.95,NE,38,0.0,2.0,93,0.00,,---,0.07,VWS V14.01,2013-05-08 06:45:00,
2013-05-08 02:50:00,52.5,50.5,29.95,NE,38,0.0,2.0,93,0.00,,---,0.07,VWS V14.01,2013-05-08 06:50:00,
2013-05-08 02:55:00,52.4,50.4,29.95,NE,39,1.0,2.0,93,0.00,,---,0.07,VWS V14.01,2013-05-08 06:55:00,
2013-05-08 03:00:00,52.4,50.4,29.96,NE,38,0.0,0.0,93,0.00,,---,0.07,VWS V14.01,2013-05-08 07:00:00,
2013-05-08 03:05:00,52.3,50.6,29.96,NE,39,1.0,1.0,94,0.00,,---,0.07,VWS V14.01,2013-05-08 07:05:00,
2013-05-08 03:10:00,52.2,50.5,29.96,NE,39,0.0,1.0,94,0.00,,---,0.07,VWS V14.01,2013-05-08 07:10:00,
2013-05-08 03:15:00,52.1,50.4,29.96,NE,38,1.0,2.0,94,0.00,,---,0.07,VWS V14.01,2013-05-08 07:15:00,
2013-05-08 03:20:00,52.0,50.0,29.96,NE,39,0.0,2.0,93,0.00,,---,0.07,VWS V14.01,2013-05-08 07:20:00,
2013-05-08 03:25:00,52.0,50.0,29.96,NE,39,0.0,2.0,93,0.00,,---,0.07,VWS V14.01,2013-05-08 07:25:00,
2013-05-08 03:30:00,52.0,50.0,29.96,NE,40,1.0,1.0,93,0.00,,---,0.07,VWS V14.01,2013-05-08 07:30:00,
2013-05-08 03:35:00,51.9,49.9,29.96,NE,40,0.0,1.0,93,0.00,,---,0.07,VWS V14.01,2013-05-08 07:35:00,
2013-05-08 03:40:00,51.8,49.8,29.96,NE,40,0.0,1.0,93,0.00,,---,0.07,VWS V14.01,2013-05-08 07:40:00,
2013-05-08 03:45:00,51.8,50.1,29.96,NE,40,0.0,1.0,94,0.00,,---,0.07,VWS V14.01,2013-05-08 07:45:00,
2013-05-08 03:50:00,51.7,50.0,29.96,NE,42,0.0,2.0,94,0.00,,---,0.07,VWS V14.01,2013-05-08 07:50:00,
2013-05-08 03:55:00,51.7,50.0,29.96,NE,42,0.0,2.0,94,0.00,,---,0.07,VWS V14.01,2013-05-08 07:55:00,
2013-05-08 04:00:00,51.5,49.8,29.96,NE,42,0.0,2.0,94,0.00,,---,0.07,VWS V14.01,2013-05-08 08:00:00,
2013-05-08 04:05:00,51.5,49.8,29.96,NE,41,0.0,2.0,94,0.00,,---,0.07,VWS V14.01,2013-05-08 08:05:00,
2013-05-08 04:10:00,51.5,49.8,29.96,NE,42,0.0,2.0,94,0.00,,---,0.07,VWS V14.01,2013-05-08 08:10:00,
2013-05-08 04:15:00,51.5,49.8,29.96,NE,42,0.0,2.0,94,0.00,,---,0.07,VWS V14.01,2013-05-08 08:15:00,
2013-05-08 04:20:00,51.5,49.8,29.96,NE,42,0.0,2.0,94,0.00,,---,0.07,VWS V14.01,2013-05-08 08:20:00,
2013-05-08 04:25:00,51.5,49.8,29.97,NE,41,1.0,2.0,94,0.00,,---,0.07,VWS V14.01,2013-05-08 08:25:00,
2013-05-08 04:30:00,51.5,49.8,29.96,NE,42,0.0,2.0,94,0.00,,---,0.07,VWS V14.01,2013-05-08 08:30:00,
2013-05-08 04:35:00,51.5,49.8,29.95,NE,42,0.0,1.0,94,0.00,,---,0.07,VWS V14.01,2013-05-08 08:35:00,
2013-05-08 04:40:00,51.5,49.8,29.96,NE,42,0.0,1.0,94,0.00,,---,0.07,VWS V14.01,2013-05-08 08:40:00,
2013-05-08 04:45:00,51.5,49.8,29.96,NE,42,0.0,2.0,94,0.00,,---,0.07,VWS V14.01,2013-05-08 08:45:00,
2013-05-08 04:50:00,51.5,49.8,29.96,NE,42,2.0,2.0,94,0.00,,---,0.07,VWS V14.01,2013-05-08 08:50:00,
2013-05-08 04:55:00,51.5,49.8,29.96,NE,52,0.0,2.0,94,0.00,,---,0.07,VWS V14.01,2013-05-08 08:55:00,
2013-05-08 05:00:00,51.5,49.8,29.95,NE,52,0.0,2.0,94,0.00,,---,0.07,VWS V14.01,2013-05-08 09:00:00,
2013-05-08 05:05:00,51.5,49.8,29.95,NE,52,0.0,1.0,94,0.00,,---,0.07,VWS V14.01,2013-05-08 09:05:00,
2013-05-08 05:10:00,51.5,49.8,29.95,NE,52,0.0,1.0,94,0.00,,---,0.07,VWS V14.01,2013-05-08 09:10:00,
2013-05-08 05:15:00,51.5,49.8,29.95,NE,52,0.0,1.0,94,0.00,,---,0.07,VWS V14.01,2013-05-08 09:15:00,
2013-05-08 05:20:00,51.5,49.8,29.95,NE,52,0.0,1.0,94,0.00,,---,0.07,VWS V14.01,2013-05-08 09:20:00,
2013-05-08 05:25:00,51.5,49.8,29.95,NE,52,1.0,1.0,94,0.00,,---,0.07,VWS V14.01,2013-05-08 09:25:00,
2013-05-08 05:30:00,51.5,49.8,29.95,NE,52,0.0,1.0,94,0.00,,---,0.07,VWS V14.01,2013-05-08 09:30:00,
2013-05-08 05:35:00,51.5,49.8,29.95,NE,52,0.0,0.0,94,0.00,,---,0.07,VWS V14.01,2013-05-08 09:35:00,
2013-05-08 05:40:00,51.5,49.8,29.96,NE,52,0.0,2.0,94,0.00,,---,0.07,VWS V14.01,2013-05-08 09:40:00,
2013-05-08 05:45:00,51.5,49.8,29.96,NE,52,0.0,3.0,94,0.00,,---,0.07,VWS V14.01,2013-05-08 09:45:00,
2013-05-08 05:50:00,51.5,49.8,29.96,NE,52,0.0,3.0,94,0.00,,---,0.07,VWS V14.01,2013-05-08 09:50:00,
2013-05-08 05:55:00,51.5,49.8,29.96,NE,52,0.0,3.0,94,0.00,,---,0.07,VWS V14.01,2013-05-08 09:55:00,
2013-05-08 06:00:00,51.5,49.8,29.96,NE,52,0.0,3.0,94,0.00,,---,0.07,VWS V14.01,2013-05-08 10:00:00,
2013-05-08 06:05:00,51.5,49.8,29.97,NE,52,0.0,0.0,94,0.00,,---,0.07,VWS V14.01,2013-05-08 10:05:00,
2013-05-08 06:10:00,51.5,49.8,29.97,NE,52,1.0,2.0,94,0.00,,---,0.07,VWS V14.01,2013-05-08 10:10:00,
2013-05-08 06:15:00,51.5,49.8,29.97,NE,52,0.0,2.0,94,0.00,,---,0.07,VWS V14.01,2013-05-08 10:15:00,
2013-05-08 06:20:00,51.5,49.8,29.97,NE,52,1.0,2.0,94,0.00,,---,0.07,VWS V14.01,2013-05-08 10:20:00,
2013-05-08 06:25:00,51.5,49.8,29.97,NE,52,0.0,2.0,94,0.00,,---,0.07,VWS V14.01,2013-05-08 10:25:00,
2013-05-08 06:30:00,51.5,49.8,29.97,NE,52,0.0,2.0,94,0.00,,---,0.07,VWS V14.01,2013-05-08 10:30:00,
2013-05-08 06:35:00,51.5,49.8,29.98,NE,52,0.0,0.0,94,0.00,,---,0.07,VWS V14.01,2013-05-08 10:35:00,
2013-05-08 06:40:00,51.5,49.8,29.98,NE,52,0.0,1.0,94,0.00,,---,0.07,VWS V14.01,2013-05-08 10:40:00,
2013-05-08 06:45:00,51.5,49.8,29.98,NE,52,0.0,1.0,94,0.00,,---,0.07,VWS V14.01,2013-05-08 10:45:00,
2013-05-08 06:50:00,51.5,49.8,29.98,NE,52,1.0,2.0,94,0.00,,---,0.07,VWS V14.01,2013-05-08 10:50:00,
2013-05-08 06:55:00,51.5,49.8,29.98,NE,52,0.0,2.0,94,0.00,,---,0.07,VWS V14.01,2013-05-08 10:55:00,
2013-05-08 07:00:00,51.5,49.8,29.98,NE,52,0.0,2.0,94,0.00,,---,0.07,VWS V14.01,2013-05-08 11:00:00,
2013-05-08 07:05:00,51.5,49.8,29.99,NE,52,0.0,1.0,94,0.00,,---,0.07,VWS V14.01,2013-05-08 11:05:00,
2013-05-08 07:10:00,51.5,49.8,29.99,NE,52,2.0,2.0,94,0.00,,---,0.07,VWS V14.01,2013-05-08 11:10:00,
2013-05-08 07:15:00,51.5,49.8,29.99,NE,52,0.0,2.0,94,0.00,,---,0.07,VWS V14.01,2013-05-08 11:15:00,
2013-05-08 07:20:00,51.5,49.8,29.99,NE,52,0.0,2.0,94,0.00,,---,0.07,VWS V14.01,2013-05-08 11:20:00,
2013-05-08 07:25:00,51.5,49.8,30.00,NE,52,2.0,2.0,94,0.00,,---,0.07,VWS V14.01,2013-05-08 11:25:00,
2013-05-08 07:30:00,51.5,49.8,30.00,NE,52,1.0,2.0,94,0.00,,---,0.07,VWS V14.01,2013-05-08 11:30:00,
2013-05-08 07:35:00,51.5,49.8,30.00,NE,52,1.0,3.0,94,0.00,,---,0.07,VWS V14.01,2013-05-08 11:35:00,
2013-05-08 07:40:00,51.5,49.8,30.00,NE,52,1.0,3.0,94,0.00,,---,0.07,VWS V14.01,2013-05-08 11:40:00,
2013-05-08 07:45:00,51.5,49.8,30.00,NE,52,0.0,3.0,94,0.00,,---,0.07,VWS V14.01,2013-05-08 11:45:00,
2013-05-08 07:50:00,51.5,49.8,30.00,NE,52,1.0,3.0,94,0.00,,---,0.07,VWS V14.01,2013-05-08 11:50:00,
2013-05-08 07:55:00,51.5,49.8,30.00,NE,52,2.0,3.0,94,0.00,,---,0.07,VWS V14.01,2013-05-08 11:55:00,
2013-05-08 08:00:00,51.5,49.8,30.00,NE,52,0.0,3.0,94,0.00,,---,0.07,VWS V14.01,2013-05-08 12:00:00,
2013-05-08 08:05:00,51.5,49.8,30.00,NE,52,0.0,1.0,94,0.00,,---,0.07,VWS V14.01,2013-05-08 12:05:00,
2013-05-08 08:10:00,51.5,49.8,30.00,NE,52,0.0,1.0,94,0.00,,---,0.07,VWS V14.01,2013-05-08 12:10:00,
2013-05-08 08:15:00,51.5,49.8,30.01,NE,52,0.0,1.0,94,0.00,,---,0.07,VWS V14.01,2013-05-08 12:15:00,
2013-05-08 08:20:00,51.5,49.8,30.01,NE,52,0.0,1.0,94,0.00,,---,0.07,VWS V14.01,2013-05-08 12:20:00,
2013-05-08 08:25:00,51.5,49.8,30.01,NE,52,0.0,1.0,94,0.00,,---,0.07,VWS V14.01,2013-05-08 12:25:00,
2013-05-08 08:30:00,51.5,49.8,30.01,NE,52,0.0,1.0,94,0.00,,---,0.07,VWS V14.01,2013-05-08 12:30:00,
2013-05-08 08:35:00,51.5,49.8,30.01,NE,52,0.0,0.0,94,0.00,,---,0.07,VWS V14.01,2013-05-08 12:35:00,
2013-05-08 08:40:00,51.5,49.8,30.01,NE,52,0.0,0.0,94,0.00,,---,0.07,VWS V14.01,2013-05-08 12:40:00,
2013-05-08 08:45:00,51.5,49.8,30.01,NE,52,0.0,0.0,94,0.00,,---,0.07,VWS V14.01,2013-05-08 12:45:00,
2013-05-08 08:50:00,51.5,49.8,30.01,NE,52,0.0,1.0,94,0.00,,---,0.07,VWS V14.01,2013-05-08 12:50:00,
2013-05-08 08:55:00,51.5,49.8,30.01,NE,52,0.0,1.0,94,0.00,,---,0.07,VWS V14.01,2013-05-08 12:55:00,
2013-05-08 09:00:00,51.5,49.8,30.02,NE,52,0.0,1.0,94,0.00,,---,0.07,VWS V14.01,2013-05-08 13:00:00,
2013-05-08 09:05:00,51.5,49.8,30.02,NE,52,0.0,2.0,94,0.00,,---,0.07,VWS V14.01,2013-05-08 13:05:00,
2013-05-08 09:09:00,51.5,49.8,30.02,NE,52,0.0,2.0,94,0.00,,---,0.07,VWS V14.01,2013-05-08 13:09:00,
2013-05-08 09:14:00,51.5,49.8,30.01,NE,52,0.0,2.0,94,0.00,,---,0.07,VWS V14.01,2013-05-08 13:14:00,
2013-05-08 09:19:00,51.5,49.8,30.01,NE,52,0.0,2.0,94,0.00,,---,0.07,VWS V14.01,2013-05-08 13:19:00,
2013-05-08 09:24:00,51.5,49.8,30.01,NE,52,1.0,2.0,94,0.00,,---,0.07,VWS V14.01,2013-05-08 13:24:00,
2013-05-08 09:29:00,51.5,49.8,30.01,NE,53,0.0,3.0,94,0.00,,---,0.07,VWS V14.01,2013-05-08 13:29:00,
2013-05-08 09:34:00,51.5,49.8,30.01,NE,53,0.0,1.0,94,0.00,,---,0.07,VWS V14.01,2013-05-08 13:34:00,
2013-05-08 09:39:00,51.5,49.8,30.01,NE,53,1.0,1.0,94,0.00,,---,0.07,VWS V14.01,2013-05-08 13:39:00,
2013-05-08 09:44:00,51.5,49.8,30.01,NE,53,0.0,2.0,94,0.00,,---,0.07,VWS V14.01,2013-05-08 13:44:00,
2013-05-08 09:49:00,51.5,49.8,30.01,NE,53,0.0,2.0,94,0.00,,---,0.07,VWS V14.01,2013-05-08 13:49:00,
2013-05-08 09:54:00,51.5,49.8,30.01,NE,53,0.0,3.0,94,0.00,,---,0.07,VWS V14.01,2013-05-08 13:54:00,
2013-05-08 09:59:00,51.5,49.8,30.02,NE,53,0.0,3.0,94,0.00,,---,0.07,VWS V14.01,2013-05-08 13:59:00,
2013-05-08 10:04:00,51.5,49.8,30.02,NE,53,0.0,0.0,94,0.00,,---,0.07,VWS V14.01,2013-05-08 14:04:00,
2013-05-08 10:09:00,51.5,49.8,30.02,NE,53,0.0,2.0,94,0.00,,---,0.07,VWS V14.01,2013-05-08 14:09:00,
2013-05-08 10:14:00,51.5,49.8,30.02,NE,53,0.0,2.0,94,0.00,,---,0.07,VWS V14.01,2013-05-08 14:14:00,
2013-05-08 10:19:00,51.5,49.8,30.02,NE,53,0.0,2.0,94,0.00,,---,0.07,VWS V14.01,2013-05-08 14:19:00,
2013-05-08 10:24:00,51.5,49.8,30.02,NE,53,0.0,2.0,94,0.00,,---,0.07,VWS V14.01,2013-05-08 14:24:00,
2013-05-08 10:29:00,51.5,49.8,30.02,NE,53,0.0,2.0,94,0.00,,---,0.07,VWS V14.01,2013-05-08 14:29:00,
2013-05-08 10:34:00,51.5,49.8,30.01,NE,53,2.0,2.0,94,0.00,,---,0.07,VWS V14.01,2013-05-08 14:34:00,
2013-05-08 10:39:00,51.5,49.8,30.01,NE,53,1.0,3.0,94,0.00,,---,0.07,VWS V14.01,2013-05-08 14:39:00,
2013-05-08 10:44:00,51.5,49.8,30.01,NW,323,2.0,4.0,94,0.00,,---,0.07,VWS V14.01,2013-05-08 14:44:00,
2013-05-08 10:49:00,51.5,49.8,30.01,NNW,327,0.0,4.0,94,0.00,,---,0.07,VWS V14.01,2013-05-08 14:49:00,
2013-05-08 10:54:00,51.5,49.8,30.02,NNW,328,1.0,4.0,94,0.00,,---,0.07,VWS V14.01,2013-05-08 14:54:00,
2013-05-08 10:59:00,51.5,49.8,30.01,NW,304,0.0,4.0,94,0.00,,---,0.07,VWS V14.01,2013-05-08 14:59:00,
2013-05-08 11:04:00,51.5,49.8,30.01,NW,304,1.0,2.0,94,0.00,,---,0.07,VWS V14.01,2013-05-08 15:04:00,
2013-05-08 11:09:00,51.5,49.8,30.01,NW,304,0.0,3.0,94,0.00,,---,0.07,VWS V14.01,2013-05-08 15:09:00,
2013-05-08 11:14:00,51.5,49.8,30.01,NW,304,2.0,3.0,94,0.00,,---,0.07,VWS V14.01,2013-05-08 15:14:00,
2013-05-08 11:19:00,51.5,49.8,30.01,NW,304,0.0,3.0,94,0.00,,---,0.07,VWS V14.01,2013-05-08 15:19:00,
2013-05-08 11:24:00,51.5,49.8,30.01,NW,307,0.0,4.0,94,0.00,,---,0.07,VWS V14.01,2013-05-08 15:24:00,
2013-05-08 11:29:00,51.5,49.8,30.01,NW,308,0.0,4.0,94,0.00,,---,0.07,VWS V14.01,2013-05-08 15:29:00,
2013-05-08 11:34:00,51.5,49.8,30.00,SW,226,1.0,2.0,94,0.00,,---,0.07,VWS V14.01,2013-05-08 15:34:00,
2013-05-08 11:39:00,51.5,49.8,30.00,SSE,153,2.0,4.0,94,0.00,,---,0.07,VWS V14.01,2013-05-08 15:39:00,
2013-05-08 11:44:00,51.5,49.8,30.00,SE,143,0.0,5.0,94,0.00,,---,0.07,VWS V14.01,2013-05-08 15:44:00,
2013-05-08 11:49:00,51.5,49.8,30.00,SSE,150,1.0,5.0,94,0.00,,---,0.07,VWS V14.01,2013-05-08 15:49:00,
2013-05-08 11:54:00,51.5,49.8,30.00,SE,130,1.0,5.0,94,0.00,,---,0.07,VWS V14.01,2013-05-08 15:54:00,
2013-05-08 11:59:00,51.5,49.8,30.00,SE,130,1.0,5.0,94,0.00,,---,0.07,VWS V14.01,2013-05-08 15:59:00,
2013-05-08 12:04:00,51.5,49.8,29.99,SE,130,1.0,2.0,94,0.00,,---,0.07,VWS V14.01,2013-05-08 16:04:00,
2013-05-08 12:09:00,51.5,49.8,29.99,East,99,1.0,5.0,94,0.00,,---,0.07,VWS V14.01,2013-05-08 16:09:00,
2013-05-08 12:14:00,51.5,49.8,29.99,East,99,1.0,5.0,94,0.00,,---,0.07,VWS V14.01,2013-05-08 16:14:00,
2013-05-08 12:19:00,62.8,60.8,29.98,East,98,1.0,5.0,93,0.00,,---,0.07,VWS V14.01,2013-05-08 16:19:00,
2013-05-08 12:24:00,63.4,60.4,29.97,East,90,1.0,5.0,90,0.00,,---,0.07,VWS V14.01,2013-05-08 16:24:00,
2013-05-08 12:29:00,63.0,58.4,29.97,East,90,3.0,5.0,85,0.00,,---,0.07,VWS V14.01,2013-05-08 16:29:00,
2013-05-08 12:34:00,63.4,58.2,29.97,East,90,0.0,3.0,83,0.00,,---,0.07,VWS V14.01,2013-05-08 16:34:00,
2013-05-08 12:39:00,64.5,57.5,29.97,SE,125,1.0,4.0,78,0.00,,---,0.07,VWS V14.01,2013-05-08 16:39:00,
2013-05-08 12:44:00,65.0,56.2,29.96,SE,146,2.0,4.0,73,0.00,,---,0.07,VWS V14.01,2013-05-08 16:44:00,
2013-05-08 12:49:00,65.7,56.4,29.96,SSE,147,1.0,4.0,72,0.00,,---,0.07,VWS V14.01,2013-05-08 16:49:00,
2013-05-08 12:54:00,66.4,57.1,29.96,SE,125,2.0,4.0,72,0.00,,---,0.07,VWS V14.01,2013-05-08 16:54:00,
2013-05-08 12:59:00,65.8,56.2,29.96,East,83,4.0,5.0,71,0.00,,---,0.07,VWS V14.01,2013-05-08 16:59:00,
2013-05-08 13:04:00,65.9,55.5,29.96,East,84,1.0,2.0,69,0.00,,---,0.07,VWS V14.01,2013-05-08 17:04:00,
2013-05-08 13:09:00,66.8,56.3,29.96,SE,140,4.0,4.0,69,0.00,,---,0.07,VWS V14.01,2013-05-08 17:09:00,
2013-05-08 13:14:00,66.6,55.3,29.96,East,99,1.0,5.0,67,0.00,,---,0.07,VWS V14.01,2013-05-08 17:14:00,
2013-05-08 13:19:00,66.0,53.9,29.95,ESE,109,3.0,6.0,65,0.00,,---,0.07,VWS V14.01,2013-05-08 17:19:00,
2013-05-08 13:24:00,65.3,53.7,29.95,NE,49,3.0,6.0,66,0.00,,---,0.07,VWS V14.01,2013-05-08 17:24:00,
2013-05-08 13:29:00,65.5,53.8,29.95,East,91,2.0,6.0,66,0.00,,---,0.07,VWS V14.01,2013-05-08 17:29:00,
2013-05-08 13:34:00,66.1,54.8,29.95,ESE,113,3.0,3.0,67,0.00,,---,0.07,VWS V14.01,2013-05-08 17:34:00,
2013-05-08 13:39:00,66.2,54.5,29.94,ENE,78,2.0,7.0,66,0.00,,---,0.07,VWS V14.01,2013-05-08 17:39:00,
2013-05-08 13:44:00,66.3,55.4,29.94,NNE,33,1.0,7.0,68,0.00,,---,0.07,VWS V14.01,2013-05-08 17:44:00,
2013-05-08 13:49:00,66.4,54.3,29.94,East,98,5.0,7.0,65,0.00,,---,0.07,VWS V14.01,2013-05-08 17:49:00,
2013-05-08 13:54:00,66.5,56.8,29.94,South,182,4.0,8.0,71,0.00,,---,0.07,VWS V14.01,2013-05-08 17:54:00,
2013-05-08 13:59:00,66.3,54.6,29.94,WSW,241,0.0,8.0,66,0.00,,---,0.07,VWS V14.01,2013-05-08 17:59:00,
2013-05-08 14:04:00,66.3,55.0,29.94,South,180,2.0,7.0,67,0.00,,---,0.07,VWS V14.01,2013-05-08 18:04:00,
2013-05-08 14:09:00,65.4,53.8,29.94,ESE,111,3.0,7.0,66,0.00,,---,0.07,VWS V14.01,2013-05-08 18:09:00,
2013-05-08 14:14:00,64.2,53.8,29.94,East,82,0.0,7.0,69,0.00,,---,0.07,VWS V14.01,2013-05-08 18:14:00,
2013-05-08 14:19:00,63.8,53.8,29.94,SE,140,2.0,7.0,70,0.00,,---,0.07,VWS V14.01,2013-05-08 18:19:00,
2013-05-08 14:24:00,63.5,53.5,29.94,SE,142,3.0,7.0,70,0.00,,---,0.07,VWS V14.01,2013-05-08 18:24:00,
2013-05-08 14:29:00,63.3,53.8,29.94,SE,142,1.0,7.0,71,0.00,,---,0.07,VWS V14.01,2013-05-08 18:29:00,
2013-05-08 14:34:00,63.8,54.2,29.94,WSW,250,3.0,5.0,71,0.00,,---,0.07,VWS V14.01,2013-05-08 18:34:00,
2013-05-08 14:39:00,64.3,54.3,29.94,WNW,284,1.0,5.0,70,0.00,,---,0.07,VWS V14.01,2013-05-08 18:39:00,
2013-05-08 14:44:00,65.3,55.3,29.94,West,281,2.0,5.0,70,0.00,,---,0.07,VWS V14.01,2013-05-08 18:44:00,
2013-05-08 14:49:00,65.0,54.6,29.94,WNW,300,2.0,7.0,69,0.00,,---,0.07,VWS V14.01,2013-05-08 18:49:00,
2013-05-08 14:54:00,64.3,54.3,29.94,NNW,327,2.0,7.0,70,0.00,,---,0.07,VWS V14.01,2013-05-08 18:54:00,
2013-05-08 14:59:00,63.8,54.6,29.94,NW,313,3.0,7.0,72,0.00,,---,0.07,VWS V14.01,2013-05-08 18:59:00,
2013-05-08 15:03:00,63.3,54.9,29.94,NNW,331,2.0,5.0,74,0.00,,---,0.07,VWS V14.01,2013-05-08 19:03:00,
2013-05-08 15:08:00,63.6,54.8,29.93,NW,313,0.0,5.0,73,0.00,,---,0.07,VWS V14.01,2013-05-08 19:08:00,
2013-05-08 15:13:00,63.8,54.6,29.93,NW,321,2.0,6.0,72,0.00,,---,0.07,VWS V14.01,2013-05-08 19:13:00,
2013-05-08 15:18:00,63.9,54.3,29.93,NW,319,2.0,6.0,71,0.00,,---,0.07,VWS V14.01,2013-05-08 19:18:00,
2013-05-08 15:23:00,63.9,54.3,29.93,NNW,336,0.0,6.0,71,0.00,,---,0.07,VWS V14.01,2013-05-08 19:23:00,
2013-05-08 15:28:00,64.3,54.3,29.93,NW,314,0.0,6.0,70,0.00,,---,0.07,VWS V14.01,2013-05-08 19:28:00,
2013-05-08 15:33:00,64.6,54.2,29.94,NW,321,0.0,5.0,69,0.00,,---,0.07,VWS V14.01,2013-05-08 19:33:00,
2013-05-08 15:38:00,64.4,54.4,29.93,NW,323,2.0,5.0,70,0.00,,---,0.07,VWS V14.01,2013-05-08 19:38:00,
2013-05-08 15:43:00,64.3,54.3,29.93,West,267,2.0,9.0,70,0.00,,---,0.07,VWS V14.01,2013-05-08 19:43:00,
2013-05-08 15:48:00,63.9,54.3,29.93,SW,231,2.0,9.0,71,0.00,,---,0.07,VWS V14.01,2013-05-08 19:48:00,
2013-05-08 15:53:00,63.6,54.0,29.94,SSE,168,7.0,12.0,71,0.00,,---,0.07,VWS V14.01,2013-05-08 19:53:00,
2013-05-08 15:58:00,60.2,51.5,29.94,South,188,6.0,17.0,73,0.11,,---,0.18,VWS V14.01,2013-05-08 19:58:00,
2013-05-08 16:03:00,57.1,50.3,29.94,SSW,194,1.0,6.0,78,0.21,,---,0.28,VWS V14.01,2013-05-08 20:03:00,
2013-05-08 16:08:00,55.0,49.3,29.95,South,188,6.0,7.0,81,0.27,,---,0.34,VWS V14.01,2013-05-08 20:08:00,
2013-05-08 16:13:00,54.0,49.6,29.95,SSW,203,3.0,8.0,85,0.40,,---,0.47,VWS V14.01,2013-05-08 20:13:00,
2013-05-08 16:18:00,53.8,50.3,29.95,SSW,202,2.0,8.0,88,0.47,,---,0.54,VWS V14.01,2013-05-08 20:18:00,
2013-05-08 16:23:00,54.3,51.4,29.95,South,190,2.0,8.0,90,0.48,,---,0.55,VWS V14.01,2013-05-08 20:23:00,
2013-05-08 16:28:00,54.8,52.2,29.96,SSW,194,0.0,8.0,91,0.49,,---,0.56,VWS V14.01,2013-05-08 20:28:00,
2013-05-08 16:33:00,55.1,52.5,29.96,SSW,194,1.0,2.0,91,0.49,,---,0.56,VWS V14.01,2013-05-08 20:33:00,
2013-05-08 16:38:00,55.4,53.1,29.95,SSW,194,0.0,2.0,92,0.49,,---,0.56,VWS V14.01,2013-05-08 20:38:00,
2013-05-08 16:43:00,55.6,53.3,29.95,SW,223,0.0,4.0,92,0.49,,---,0.56,VWS V14.01,2013-05-08 20:43:00,
2013-05-08 16:48:00,55.8,53.5,29.96,West,280,0.0,4.0,92,0.49,,---,0.56,VWS V14.01,2013-05-08 20:48:00,
2013-05-08 16:53:00,55.8,53.5,29.96,WNW,282,0.0,4.0,92,0.49,,---,0.56,VWS V14.01,2013-05-08 20:53:00,
2013-05-08 16:58:00,56.0,53.7,29.96,West,281,2.0,4.0,92,0.49,,---,0.56,VWS V14.01,2013-05-08 20:58:00,
2013-05-08 17:03:00,56.1,53.8,29.96,West,280,0.0,2.0,92,0.36,,---,0.56,VWS V14.01,2013-05-08 21:03:00,
2013-05-08 17:08:00,56.0,53.7,29.96,West,275,0.0,3.0,92,0.36,,---,0.56,VWS V14.01,2013-05-08 21:08:00,
2013-05-08 17:13:00,56.0,53.7,29.96,WNW,290,0.0,4.0,92,0.36,,---,0.56,VWS V14.01,2013-05-08 21:13:00,
2013-05-08 17:18:00,56.1,53.8,29.96,WNW,290,0.0,4.0,92,0.36,,---,0.56,VWS V14.01,2013-05-08 21:18:00,
2013-05-08 17:23:00,56.1,53.8,29.96,WNW,292,0.0,4.0,92,0.36,,---,0.56,VWS V14.01,2013-05-08 21:23:00,
2013-05-08 17:28:00,56.1,53.8,29.96,WNW,292,0.0,4.0,92,0.36,,---,0.56,VWS V14.01,2013-05-08 21:28:00,
2013-05-08 17:33:00,56.3,54.0,29.96,WNW,292,0.0,2.0,92,0.00,,---,0.56,VWS V14.01,2013-05-08 21:33:00,
2013-05-08 17:38:00,56.1,53.8,29.97,WNW,293,3.0,3.0,92,0.00,,---,0.56,VWS V14.01,2013-05-08 21:38:00,
2013-05-08 17:43:00,55.7,53.7,29.97,WNW,294,1.0,3.0,93,0.00,,---,0.56,VWS V14.01,2013-05-08 21:43:00,
2013-05-08 17:48:00,55.4,53.1,29.97,WNW,295,0.0,4.0,92,0.00,,---,0.56,VWS V14.01,2013-05-08 21:48:00,
2013-05-08 17:53:00,55.5,53.2,29.97,WNW,295,0.0,4.0,92,0.00,,---,0.56,VWS V14.01,2013-05-08 21:53:00,
2013-05-08 17:58:00,55.5,53.2,29.97,WNW,296,1.0,4.0,92,0.00,,---,0.56,VWS V14.01,2013-05-08 21:58:00,
2013-05-08 18:03:00,55.6,53.3,29.97,WNW,296,0.0,2.0,92,0.00,,---,0.56,VWS V14.01,2013-05-08 22:03:00,
2013-05-08 18:08:00,55.7,53.7,29.97,NW,313,2.0,4.0,93,0.00,,---,0.56,VWS V14.01,2013-05-08 22:08:00,
2013-05-08 18:13:00,55.7,53.7,29.97,North,349,3.0,4.0,93,0.00,,---,0.56,VWS V14.01,2013-05-08 22:13:00,
2013-05-08 18:18:00,55.6,53.3,29.97,North,350,2.0,4.0,92,0.00,,---,0.56,VWS V14.01,2013-05-08 22:18:00,
2013-05-08 18:23:00,55.5,53.2,29.97,North,355,3.0,5.0,92,0.00,,---,0.56,VWS V14.01,2013-05-08 22:23:00,
2013-05-08 18:28:00,55.1,53.1,29.97,North,355,1.0,5.0,93,0.00,,---,0.56,VWS V14.01,2013-05-08 22:28:00,
2013-05-08 18:33:00,54.8,52.5,29.97,North,355,0.0,2.0,92,0.00,,---,0.56,VWS V14.01,2013-05-08 22:33:00,
2013-05-08 18:38:00,54.8,52.5,29.97,North,355,0.0,2.0,92,0.00,,---,0.56,VWS V14.01,2013-05-08 22:38:00,
2013-05-08 18:43:00,54.9,52.6,29.97,North,355,0.0,2.0,92,0.00,,---,0.56,VWS V14.01,2013-05-08 22:43:00,
2013-05-08 18:48:00,54.9,52.6,29.97,North,355,0.0,2.0,92,0.00,,---,0.56,VWS V14.01,2013-05-08 22:48:00,
2013-05-08 18:53:00,55.0,52.7,29.96,North,355,0.0,2.0,92,0.00,,---,0.56,VWS V14.01,2013-05-08 22:53:00,
2013-05-08 18:58:00,55.0,52.7,29.96,North,355,0.0,2.0,92,0.00,,---,0.56,VWS V14.01,2013-05-08 22:58:00,
2013-05-08 19:03:00,54.9,52.6,29.96,North,355,0.0,0.0,92,0.00,,---,0.56,VWS V14.01,2013-05-08 23:03:00,
2013-05-08 19:08:00,55.0,52.7,29.96,North,355,0.0,0.0,92,0.01,,---,0.57,VWS V14.01,2013-05-08 23:08:00,
2013-05-08 19:13:00,54.9,52.6,29.96,North,355,0.0,0.0,92,0.01,,---,0.57,VWS V14.01,2013-05-08 23:13:00,
2013-05-08 19:18:00,54.9,52.6,29.96,North,355,0.0,0.0,92,0.01,,---,0.57,VWS V14.01,2013-05-08 23:18:00,
2013-05-08 19:23:00,54.9,52.6,29.96,North,355,0.0,0.0,92,0.02,,---,0.58,VWS V14.01,2013-05-08 23:23:00,
2013-05-08 19:28:00,54.9,52.6,29.96,North,355,0.0,1.0,92,0.02,,---,0.58,VWS V14.01,2013-05-08 23:28:00,
2013-05-08 19:33:00,55.0,52.7,29.95,North,355,0.0,2.0,92,0.02,,---,0.58,VWS V14.01,2013-05-08 23:33:00,
2013-05-08 19:38:00,55.0,52.7,29.95,North,355,0.0,2.0,92,0.02,,---,0.58,VWS V14.01,2013-05-08 23:38:00,
2013-05-08 19:43:00,54.9,52.6,29.95,North,355,0.0,2.0,92,0.02,,---,0.58,VWS V14.01,2013-05-08 23:43:00,
2013-05-08 19:48:00,54.8,52.5,29.95,North,355,0.0,2.0,92,0.02,,---,0.58,VWS V14.01,2013-05-08 23:48:00,
2013-05-08 19:53:00,54.9,52.6,29.95,North,355,0.0,2.0,92,0.02,,---,0.58,VWS V14.01,2013-05-08 23:53:00,
2013-05-08 19:58:00,54.8,52.5,29.95,North,355,0.0,2.0,92,0.02,,---,0.58,VWS V14.01,2013-05-08 23:58:00,
2013-05-08 20:03:00,54.8,52.5,29.95,North,355,0.0,0.0,92,0.02,,---,0.58,VWS V14.01,2013-05-09 00:03:00,
2013-05-08 20:08:00,54.7,52.4,29.95,North,355,0.0,1.0,92,0.02,,---,0.58,VWS V14.01,2013-05-09 00:08:00,
2013-05-08 20:13:00,54.5,52.2,29.96,North,355,0.0,1.0,92,0.02,,---,0.58,VWS V14.01,2013-05-09 00:13:00,
2013-05-08 20:18:00,54.2,51.9,29.96,North,355,0.0,1.0,92,0.02,,---,0.58,VWS V14.01,2013-05-09 00:18:00,
2013-05-08 20:23:00,54.1,51.8,29.97,North,355,0.0,1.0,92,0.02,,---,0.58,VWS V14.01,2013-05-09 00:23:00,
2013-05-08 20:28:00,53.8,51.5,29.97,North,355,0.0,1.0,92,0.02,,---,0.58,VWS V14.01,2013-05-09 00:28:00,
2013-05-08 20:33:00,53.7,51.4,29.97,North,355,0.0,0.0,92,0.00,,---,0.58,VWS V14.01,2013-05-09 00:33:00,
2013-05-08 20:38:00,53.6,51.3,29.98,North,355,0.0,0.0,92,0.00,,---,0.58,VWS V14.01,2013-05-09 00:38:00,
2013-05-08 20:43:00,53.5,51.2,29.98,North,355,0.0,0.0,92,0.00,,---,0.58,VWS V14.01,2013-05-09 00:43:00,
2013-05-08 20:48:00,53.4,51.1,29.99,North,355,0.0,0.0,92,0.00,,---,0.58,VWS V14.01,2013-05-09 00:48:00,
2013-05-08 20:53:00,53.4,51.1,29.99,North,355,0.0,0.0,92,0.00,,---,0.58,VWS V14.01,2013-05-09 00:53:00,
2013-05-08 20:58:00,53.4,51.1,29.99,North,355,0.0,0.0,92,0.00,,---,0.58,VWS V14.01,2013-05-09 00:58:00,
2013-05-08 21:03:00,53.3,51.0,29.99,North,355,0.0,1.0,92,0.00,,---,0.58,VWS V14.01,2013-05-09 01:03:00,
2013-05-08 21:08:00,53.3,51.3,29.99,North,355,0.0,1.0,93,0.00,,---,0.58,VWS V14.01,2013-05-09 01:08:00,
2013-05-08 21:13:00,53.2,51.2,29.99,North,355,1.0,1.0,93,0.00,,---,0.58,VWS V14.01,2013-05-09 01:13:00,
2013-05-08 21:18:00,53.1,51.1,29.99,North,355,0.0,1.0,93,0.00,,---,0.58,VWS V14.01,2013-05-09 01:18:00,
2013-05-08 21:23:00,53.0,51.0,29.99,North,355,1.0,2.0,93,0.00,,---,0.58,VWS V14.01,2013-05-09 01:23:00,
2013-05-08 21:28:00,52.8,50.8,29.99,North,355,0.0,2.0,93,0.00,,---,0.58,VWS V14.01,2013-05-09 01:28:00,
2013-05-08 21:33:00,52.8,50.8,29.99,North,355,0.0,1.0,93,0.00,,---,0.58,VWS V14.01,2013-05-09 01:33:00,
2013-05-08 21:38:00,52.8,50.8,29.99,North,355,1.0,1.0,93,0.00,,---,0.58,VWS V14.01,2013-05-09 01:38:00,
2013-05-08 21:42:00,52.7,50.7,29.99,ENE,67,1.0,2.0,93,0.00,,---,0.58,VWS V14.01,2013-05-09 01:42:00,
2013-05-08 21:47:00,52.7,50.7,29.99,ENE,76,0.0,3.0,93,0.00,,---,0.58,VWS V14.01,2013-05-09 01:47:00,
2013-05-08 21:52:00,52.7,50.7,29.99,ENE,76,0.0,3.0,93,0.00,,---,0.58,VWS V14.01,2013-05-09 01:52:00,
2013-05-08 21:57:00,52.6,50.6,29.99,ENE,76,0.0,3.0,93,0.00,,---,0.58,VWS V14.01,2013-05-09 01:57:00,
2013-05-08 22:02:00,52.5,50.5,29.99,ENE,76,0.0,0.0,93,0.00,,---,0.58,VWS V14.01,2013-05-09 02:02:00,
2013-05-08 22:07:00,52.4,50.4,30.00,ENE,76,0.0,1.0,93,0.00,,---,0.58,VWS V14.01,2013-05-09 02:07:00,
2013-05-08 22:12:00,52.3,50.3,30.00,ENE,76,0.0,2.0,93,0.00,,---,0.58,VWS V14.01,2013-05-09 02:12:00,
2013-05-08 22:17:00,52.2,50.2,30.00,ENE,76,0.0,2.0,93,0.00,,---,0.58,VWS V14.01,2013-05-09 02:17:00,
2013-05-08 22:22:00,51.9,49.9,30.00,ENE,76,1.0,2.0,93,0.00,,---,0.58,VWS V14.01,2013-05-09 02:22:00,
2013-05-08 22:27:00,51.7,49.8,30.00,ENE,75,0.0,2.0,93,0.00,,---,0.58,VWS V14.01,2013-05-09 02:27:00,
2013-05-08 22:32:00,51.5,49.5,30.00,ENE,75,0.0,1.0,93,0.00,,---,0.58,VWS V14.01,2013-05-09 02:32:00,
2013-05-08 22:37:00,51.4,49.5,30.00,ENE,76,0.0,1.0,93,0.00,,---,0.58,VWS V14.01,2013-05-09 02:37:00,
2013-05-08 22:42:00,51.3,49.3,30.00,ENE,76,0.0,1.0,93,0.00,,---,0.58,VWS V14.01,2013-05-09 02:42:00,
2013-05-08 22:47:00,51.2,49.2,30.00,ENE,76,0.0,1.0,93,0.00,,---,0.58,VWS V14.01,2013-05-09 02:47:00,
2013-05-08 22:52:00,51.1,49.2,30.01,ENE,76,0.0,1.0,93,0.00,,---,0.58,VWS V14.01,2013-05-09 02:52:00,
2013-05-08 22:57:00,50.9,49.0,30.00,ENE,75,0.0,1.0,93,0.00,,---,0.58,VWS V14.01,2013-05-09 02:57:00,
2013-05-08 23:02:00,50.6,48.7,30.00,ENE,76,0.0,0.0,93,0.00,,---,0.58,VWS V14.01,2013-05-09 03:02:00,
2013-05-08 23:07:00,50.4,48.5,30.01,ENE,75,0.0,1.0,93,0.00,,---,0.58,VWS V14.01,2013-05-09 03:07:00,
2013-05-08 23:12:00,50.0,48.1,30.01,ENE,77,1.0,2.0,93,0.00,,---,0.58,VWS V14.01,2013-05-09 03:12:00,
2013-05-08 23:17:00,49.9,48.0,30.00,ENE,77,2.0,2.0,93,0.00,,---,0.58,VWS V14.01,2013-05-09 03:17:00,
2013-05-08 23:22:00,50.2,48.3,30.00,ENE,78,0.0,3.0,93,0.00,,---,0.58,VWS V14.01,2013-05-09 03:22:00,
2013-05-08 23:27:00,50.4,48.5,30.00,ENE,78,0.0,3.0,93,0.00,,---,0.58,VWS V14.01,2013-05-09 03:27:00,
2013-05-08 23:32:00,50.6,48.7,30.00,ENE,78,0.0,0.0,93,0.00,,---,0.58,VWS V14.01,2013-05-09 03:32:00,
2013-05-08 23:37:00,51.1,49.2,30.00,ENE,78,1.0,2.0,93,0.00,,---,0.58,VWS V14.01,2013-05-09 03:37:00,
2013-05-08 23:42:00,51.3,49.3,30.00,ENE,78,0.0,2.0,93,0.00,,---,0.58,VWS V14.01,2013-05-09 03:42:00,
2013-05-08 23:47:00,51.4,49.5,30.00,ENE,78,0.0,2.0,93,0.00,,---,0.58,VWS V14.01,2013-05-09 03:47:00,
2013-05-08 23:52:00,51.4,49.5,30.00,ENE,78,2.0,2.0,93,0.00,,---,0.58,VWS V14.01,2013-05-09 03:52:00,
2013-05-08 23:57:00,51.4,49.5,30.00,ENE,78,1.0,2.0,93,0.00,,---,0.58,VWS V14.01,2013-05-09 03:57:00,